Location: Dagersheim
(48.7000°N, 8.1167°E)
Time: 07:00:29
(UTC+00:00)

Daily predictions for brighter satellites

Satellite Brightness Start Highest point End
(mag) Time Altitude Azimuth Time Altitude Azimuth Time Altitude Azimuth
Cosmos 1727 Rocket 4.1 19:15:36 10° N 19:21:59 73° E 19:28:19 10° SSE
Cosmos 2251 Rocket 3.5 19:18:28 10° SSW 19:23:42 73° ESE 19:28:59 10° NNE
Cosmos 1656 3.7 19:21:16 10° NNW 19:26:46 76° ENE 19:32:18 10° SSE
Cosmos 1707 Rocket 4.4 19:27:18 10° N 19:31:16 33° ENE 19:35:10 10° SE
Cosmos 220 Rocket 4.2 19:27:13 10° NNW 19:31:22 54° ENE 19:35:31 10° SE
Cosmos 1633 3.4 19:27:55 10° SSW 19:31:23 54° WNW 19:34:53 10° N
Resurs 01 Rocket 1.9 19:28:54 10° SSE 19:33:11 53° ENE 19:37:31 10° N
Cosmos 972 Rocket 4.0 19:28:12 10° NNW 19:33:16 84° WSW 19:38:09 10° SSE
Cosmos 1441 Rocket 3.7 19:35:03 10° SSE 19:38:37 40° E 19:42:10 10° NNE
IRIDIUM 114 4.4 19:36:08 10° SSE 19:41:15 63° E 19:46:25 10° N
Cosmos 614 Rocket 4.2 19:37:19 10° S 19:42:13 47° ESE 19:47:12 10° NNE
IGS 5A 4.4 19:41:14 10° SE 19:44:54 32° ENE 19:48:36 10° N
Cosmos 1900 4.3 19:40:31 10° SSW 19:45:27 77° ESE 19:50:30 10° NE
USA 267 3.4 19:41:36 10° ENE 19:48:00 53° SE 19:54:22 10° SSW
GP-B 4.2 19:46:04 10° NNE 19:49:50 26° E 19:53:14 12° SE
IRIDIUM 103 4.3 19:45:11 10° S 19:50:23 75° E 19:55:37 10° N
Cosmos 1821 Rocket 4.0 19:46:33 10° S 19:52:35 63° E 19:58:43 10° NNE
Shenzhou-11 Module 3.2 19:52:44 10° SW 19:54:30 19° S 19:55:30 15° SSE
COSMOS 2406 3.2 19:48:51 10° SSW 19:54:33 68° ESE 20:00:16 10° NNE
Cosmos 1743 Rocket 4.5 19:51:21 10° SSW 19:55:42 54° WNW 20:00:07 10° N
CZ-2C R/B 3.7 19:51:18 10° NNE 19:55:58 85° ESE 20:00:31 10° SSW
SL-16 R/B 4.0 19:53:12 10° N 19:57:20 20° NE 20:01:27 10° E
Intercosmos 25 3.3 19:53:05 10° N 19:57:51 81° ENE 20:01:14 10° SSE
ERS-1 Rocket 4.1 19:56:08 12° ESE 20:00:02 30° ENE 20:04:22 10° N
Lacrosse 5 3.1 19:55:49 10° NW 20:00:32 37° NNE 20:05:15 10° E
Cosmos 2369 3.8 19:57:13 10° NNW 20:02:59 75° ENE 20:08:05 13° SE
Cosmos 1862 3.5 19:59:50 10° SSW 20:03:53 77° W 20:07:59 10° N
Sich 1 3.0 20:00:23 10° S 20:04:48 70° E 20:09:14 10° NNE
Cosmos 1818 3.7 20:02:12 10° NW 20:07:41 77° SW 20:12:24 14° SSE
BREEZE-M DEB (TANK) 1.8 20:05:09 10° W 20:08:21 79° N 20:09:54 14° E
IRIDIUM 106 4.5 20:03:29 10° S 20:08:42 78° W 20:13:57 10° N
Cosmos 2082 Rocket 2.7 20:04:31 10° S 20:09:46 39° ESE 20:15:00 10° NE
Cosmos 2278 3.9 20:06:34 10° NNW 20:12:16 62° ENE 20:16:44 17° SE
Cosmos 2123 Rocket 4.1 20:06:22 10° N 20:12:32 62° ENE 20:18:06 13° SSE
Meteor 2-20 4.5 20:08:09 10° N 20:14:20 73° ENE 20:20:08 12° SSE
Spot 2 Rocket 3.6 20:11:25 13° SSE 20:15:53 68° ENE 20:20:58 10° N
Cosmos 2322 Rocket 3.9 20:15:28 10° N 20:19:57 23° NE 20:24:23 10° E
Meteor 1-4 Rocket 2.4 20:16:48 10° N 20:20:17 64° ENE 20:22:27 21° SSE
Cosmos 2239 Rocket 4.4 20:15:46 10° S 20:21:54 87° E 20:28:06 10° N
Cosmos 1184 Rocket 3.6 20:21:02 23° SE 20:22:22 32° E 20:25:23 10° NNE
Cosmos 1190 Rocket 4.0 20:17:20 10° S 20:22:31 62° ESE 20:27:46 10° NNE
CARTOSAT-1 4.2 20:20:05 19° SE 20:22:43 40° ENE 20:26:47 10° N
CZ-2C R/B 4.0 20:18:44 10° N 20:23:33 40° WNW 20:28:21 10° SW
Terra 2.9 20:21:08 17° ESE 20:23:56 30° ENE 20:28:04 10° N
USA 234 3.3 20:18:46 15° ESE 20:24:17 89° NNE 20:30:52 10° NW
Cosmos 407 Rocket 3.5 20:20:08 10° SSW 20:25:27 79° ESE 20:30:46 10° NNE
Cosmos 1605 Rocket 4.3 20:21:08 14° SSE 20:26:05 45° E 20:31:50 10° NNE
Cosmos 1666 Rocket 3.4 20:22:05 10° S 20:26:23 78° E 20:30:44 10° NNE
Cosmos 1238 Rocket 3.4 20:28:02 23° ESE 20:28:20 24° E 20:30:48 10° NE
Okean 1 4.4 20:26:12 10° N 20:29:47 29° ENE 20:31:27 22° ESE
MetOp-B 4.3 20:25:44 11° S 20:30:53 72° WSW 20:36:17 10° NNW
Meteor 1-27 Rocket 4.1 20:25:05 10° NNW 20:30:58 71° W 20:36:53 10° S
Cosmos 2360 Rocket 4.2 20:30:01 10° N 20:33:54 18° NE 20:37:46 10° E
Cosmos 1437 Rocket 4.2 20:31:11 10° NNE 20:34:13 22° ENE 20:35:27 19° E
BREEZE-M DEB (TANK) 4.3 20:35:14 10° W 20:36:59 12° WSW 20:38:21 10° SW
ERBS 4.4 20:34:47 10° W 20:37:44 28° NNW 20:40:41 10° NE
SPOT 5 3.0 20:35:54 24° SE 20:38:11 48° ENE 20:42:24 10° N
USA 238 DEB 4.0 20:32:19 10° S 20:38:22 40° ESE 20:44:40 10° NE
USA 238 4.0 20:32:26 10° S 20:38:29 39° ESE 20:44:46 10° NE
Cosmos 1980 Rocket 2.2 20:37:44 10° NNW 20:43:28 90° WNW 20:47:05 23° SSE
SPOT 1/Viking Rocket 3.6 20:39:53 19° SSE 20:43:45 86° WSW 20:49:02 10° NNW
Cosmos 1703 Rocket 4.4 20:41:29 10° N 20:45:29 34° ENE 20:47:06 26° ESE
Cosmos 2242 Rocket 4.0 20:41:17 10° N 20:45:35 46° ENE 20:47:29 28° SE
SL-4 R/B 1.7 20:44:29 10° SW 20:48:19 57° SSE 20:51:35 12° ENE
Cosmos 1763 Rocket 4.2 20:43:18 10° NNW 20:48:21 41° ENE 20:51:08 23° ESE
Genesis I 3.1 20:45:14 10° NW 20:49:08 85° SW 20:50:44 34° SE
BREEZE-M DEB (TANK) 2.7 20:46:19 10° W 20:49:11 84° N 20:57:13 10° E
Cosmos 405 Rocket 3.2 20:49:22 34° SE 20:50:08 38° E 20:53:37 10° NNE
Cosmos 1140 Rocket 3.5 20:45:53 10° SSW 20:51:07 83° WNW 20:56:26 10° NNE
ATLAS 5 CENTAUR R/B 3.9 20:47:05 10° WNW 20:51:57 28° WSW 20:57:17 10° S
USA 32 4.0 20:53:02 17° S 20:57:06 86° E 21:02:22 10° N
Cosmos 1697 Rocket 3.7 20:53:47 10° NW 20:58:59 40° WSW 21:03:04 16° S
Cosmos 1633 Rocket 3.6 20:55:21 10° SSW 20:59:43 59° WNW 21:04:07 10° N
Cosmos 1833 Rocket 3.3 20:54:53 10° SW 21:00:25 59° WNW 21:06:00 10° NNE
Cosmos 1867 3.5 21:01:21 10° SSW 21:06:47 75° SE 21:12:15 10° NE
CENTAUR R/B 3.0 21:04:45 28° SSE 21:06:57 36° ESE 21:13:07 10° NE
Meteor 1-18 Rocket 4.2 21:01:25 10° N 21:07:03 74° ENE 21:09:50 31° SSE
Okean 1-7 3.4 21:03:01 10° N 21:07:15 49° ENE 21:08:30 37° SE
Resurs 01 Rocket 4.0 21:06:53 10° SW 21:10:00 19° W 21:13:08 10° NW
FALCON 9 DEB 3.0 21:10:32 10° SW 21:14:00 70° SSE 21:15:22 34° ENE
Cosmos 1447 Rocket 4.5 21:07:47 10° N 21:14:12 86° E 21:17:47 28° S
Cosmos 1850 Rocket 4.4 21:14:18 35° SE 21:15:51 44° ESE 21:20:51 10° NE
Meteor 2-4 Rocket 4.1 21:11:07 10° N 21:16:43 51° ENE 21:18:53 33° SE
Cosmos 1515 3.7 21:13:52 10° N 21:17:41 65° ENE 21:18:22 53° SE
SL-27 R/B 4.4 21:19:37 16° ENE 21:19:37 16° ENE 21:20:44 10° NE
Cosmos 676 Rocket 4.2 21:14:43 10° SSW 21:20:02 75° WNW 21:25:25 10° NNE
Cosmos 44 4.2 21:16:09 10° NNW 21:20:44 40° NE 21:23:08 25° E
ATLAS 5 CENTAUR R/B 2.8 21:18:41 10° NNW 21:21:08 37° NE 21:23:25 23° E
Meteor 1-25 Rocket 4.3 21:17:53 17° SSW 21:22:12 77° WNW 21:27:51 10° N
Cosmos 1470 Rocket 4.0 21:19:31 20° SSW 21:22:26 61° WNW 21:26:49 10° N
SWARM A 4.1 21:19:32 10° N 21:22:52 70° E 21:22:57 70° E
USA 267 3.6 21:24:40 10° NE 21:31:09 66° NNW 21:37:36 10° WSW
NOSS 3-2 (A) 3.3 21:27:05 10° SW 21:32:49 82° SE 21:39:27 10° NE
Cosmos 921 Rocket 3.6 21:29:34 10° NNW 21:33:39 47° WSW 21:34:51 36° SSW
ERS-1 Rocket 3.9 21:36:09 24° SSW 21:38:40 42° W 21:43:28 10° NNW
NOSS 3-2 (C) 3.4 21:35:51 29° S 21:38:45 59° ESE 21:45:10 10° NE
Cosmos 841 Rocket 3.8 21:35:16 10° NNW 21:40:26 57° ENE 21:42:00 41° ESE
Cosmos 540 Rocket 3.7 21:36:46 10° NNW 21:41:53 57° ENE 21:43:22 41° ESE
SL-16 R/B 2.1 21:36:38 10° NNW 21:42:22 82° ENE 21:44:17 43° SE
Lacrosse 5 1.8 21:38:54 10° NW 21:44:01 87° NNE 21:45:31 47° ESE
Cosmos 468 Rocket 4.1 21:38:45 10° NNW 21:44:03 68° WSW 21:45:45 42° S
Cosmos 1741 Rocket 3.9 21:48:23 42° S 21:50:12 79° ESE 21:55:30 10° NNE
Cosmos 1570 Rocket 4.0 21:46:25 10° NNW 21:51:45 73° ENE 21:53:10 49° SE
Cosmos 2219 Rocket 3.9 21:48:35 10° N 21:53:11 24° NE 21:56:38 14° E
Cosmos 2082 Rocket 3.4 21:48:29 10° WSW 21:53:50 41° NW 21:59:13 10° NNE
Cosmos 2208 Rocket 4.1 21:48:35 10° NNW 21:53:51 64° ENE 21:55:11 47° ESE
Cosmos 1814 Rocket 4.2 21:49:03 10° NNW 21:54:13 61° ENE 21:55:32 46° ESE
Terra 2.8 22:00:01 30° SW 22:01:35 38° W 22:06:03 10° NNW
Cosmos 2322 Rocket 2.1 21:58:59 10° NNW 22:04:43 84° WSW 22:06:13 52° SSE
USA 234 4.1 22:06:06 29° SSW 22:07:48 33° SW 22:13:35 10° WNW
Cosmos 2100 Rocket 4.0 22:05:35 37° SSW 22:08:11 81° W 22:14:22 10° N
Meteor 1-11 Rocket 3.8 22:09:09 51° SE 22:10:12 59° E 22:15:50 10° NNE
Cosmos 1437 Rocket 3.9 22:07:07 10° NNW 22:10:32 31° W 22:10:50 31° WSW
Cosmos 1242 Rocket 3.7 22:09:17 10° N 22:12:07 35° NE 22:12:07 35° NE
Cosmos 1869 Rocket 3.8 22:13:01 52° SW 22:13:49 63° WNW 22:18:15 10° N
Cosmos 2360 Rocket 2.2 22:13:15 10° NNW 22:18:57 73° ENE 22:20:19 52° SE
COSMOS 2428 4.1 22:14:42 10° NNW 22:19:47 31° NE 22:22:36 21° E
Geosat 4.0 22:20:48 57° SSW 22:21:32 65° WSW 22:26:33 10° NW
ATLAS 3B R/B 2.8 22:21:12 45° SE 22:21:50 46° ESE 22:28:08 10° NE
Iridium 4 Rocket 3.5 22:21:45 50° WSW 22:22:21 54° W 22:26:31 10° N
Cosmos 2173 Rocket 4.2 22:21:11 36° SSW 22:23:47 67° WNW 22:29:55 10° N
Cosmos 1500 4.0 22:25:10 43° W 22:25:14 44° WNW 22:28:51 10° N
CRYOSAT 2 4.2 22:21:17 10° N 22:26:12 89° E 22:26:46 70° S
Cosmos 1980 Rocket 4.3 22:23:23 10° WNW 22:26:37 16° W 22:28:51 13° WSW
ALOS 2 2.9 22:27:44 54° E 22:27:53 54° ENE 22:32:10 10° N
SL-4 R/B 2.6 22:24:15 10° W 22:27:13 46° WNW 22:27:13 46° WNW
Cosmos 1725 Rocket 3.9 22:27:19 51° S 22:29:02 80° E 22:35:24 10° N
USA 238 DEB 4.2 22:22:33 10° WSW 22:29:07 58° NW 22:36:01 10° NE
USA 238 4.2 22:22:38 10° WSW 22:29:13 58° NW 22:36:07 10° NE
Cosmos 1674 Rocket 3.7 22:29:03 10° N 22:33:13 61° ENE 22:33:13 61° ENE
SL-08 R/B 4.3 22:32:19 53° S 22:33:53 87° E 22:40:01 10° N
Cosmos 1536 3.0 22:34:39 65° NNE 22:34:39 65° NNE 22:38:07 10° N
Cosmos 1666 3.2 22:37:32 57° NNW 22:37:32 57° NNW 22:40:40 10° N
Cosmos 1743 4.2 22:38:17 29° ENE 22:38:17 29° ENE 22:40:49 10° NNE
Cosmos 2333 Rocket 2.9 22:33:50 10° NNW 22:39:26 48° NE 22:41:19 35° ESE
Cosmos 1271 Rocket 3.8 22:37:48 10° N 22:40:47 37° NE 22:40:47 37° NE
Cosmos 2016 Rocket 4.1 22:39:51 43° SSW 22:41:59 72° W 22:48:23 10° N
Meteor 1-13 Rocket 4.5 22:36:55 10° NNW 22:42:19 55° W 22:43:23 47° SW
Cosmos 2237 Rocket 4.2 22:38:55 10° N 22:43:16 22° NE 22:47:32 10° E
Cosmos 2061 Rocket 4.1 22:41:23 44° SSW 22:43:24 70° WNW 22:49:36 10° N
Lacrosse 4 Rocket 3.0 22:45:23 25° ENE 22:45:23 25° ENE 22:47:32 10° NE
MOS 1-B Rocket 4.1 22:39:09 10° N 22:44:49 64° WNW 22:46:44 40° SW
Cosmos 2221 Rocket 4.2 22:42:04 10° NNW 22:46:22 47° W 22:46:29 47° W
Cosmos 1733 Rocket 3.1 22:50:59 77° NW 22:50:59 77° NW 22:55:16 10° N
Cosmos 1066 Rocket 4.1 22:47:09 10° NNW 22:52:54 77° W 22:53:46 63° SSW
SL-27 R/B 4.3 22:53:08 25° WNW 22:53:08 25° WNW 22:55:53 10° N
Meteor 1-23 Rocket 4.2 22:48:52 10° NNW 22:54:43 78° W 22:55:43 61° SSW
Cosmos 44 Rocket 4.4 22:50:58 10° NNW 22:55:39 40° NE 22:57:31 29° E
Thor Agena Rocket 3.7 22:51:02 10° N 22:56:04 67° WNW 22:56:59 55° WSW
CENTAUR R/B 3.1 22:51:50 14° WSW 22:57:14 60° NW 23:04:31 10° NE
Cosmos 968 Rocket 3.9 22:59:01 45° E 22:59:01 45° E 23:03:35 10° NNE
Cosmos 1975 4.3 23:02:22 28° ENE 23:02:22 28° ENE 23:05:03 10° NNE
Cosmos 44 4.1 22:57:24 10° NW 23:01:33 39° WSW 23:01:33 39° WSW
SL-24 DEB 4.5 23:00:39 10° NNE 23:05:18 59° E 23:05:18 59° E
Cosmos 1378 4.1 23:09:44 10° NNW 23:12:29 44° NW 23:12:29 44° NW
USA 267 4.4 23:07:31 10° ENE 23:13:38 44° N 23:19:45 10° WNW
Cosmos 2233 Rocket 4.1 23:14:31 53° SSW 23:16:04 74° W 23:22:26 10° N
Cosmos 1464 Rocket 4.4 23:15:36 43° ESE 23:16:43 48° E 23:22:39 10° NNE
Cosmos 1908 Rocket 3.7 23:18:33 69° NE 23:18:33 69° NE 23:22:29 10° NNE
Cosmos 1842 4.1 23:14:29 10° N 23:17:41 46° NE 23:17:41 46° NE
Helios 1B rocket 4.3 23:19:21 10° NE 23:21:48 21° ENE 23:21:48 21° ENE
Cosmos 2227 Rocket 4.3 23:22:42 13° E 23:22:59 13° E 23:25:28 10° ENE
Meteor 1-21 4.5 23:18:28 10° N 23:24:15 61° ENE 23:25:21 52° ESE
SL-16 R/B 4.0 23:22:05 10° WNW 23:25:44 18° W 23:26:08 18° WSW
Lacrosse 5 3.7 23:22:34 10° WNW 23:24:40 19° W 23:24:40 19° W
Cosmos 2322 3.7 23:23:34 10° NNW 23:29:12 64° WSW 23:29:31 63° SW
Cosmos 1378 Rocket 4.3 23:24:56 10° NNW 23:28:49 45° WNW 23:28:49 45° WNW
Cosmos 1833 4.3 23:28:45 52° WSW 23:30:00 68° WNW 23:35:41 10° NNE
COSMOS 2487 4.0 23:32:14 34° NNW 23:32:14 34° NNW 23:34:33 10° N
Nadezhda 4 Rocket 4.4 23:30:07 10° N 23:36:20 55° ENE 23:38:03 43° SE
Cosmos 2219 Rocket 2.0 23:32:05 10° NNW 23:37:47 78° WSW 23:38:19 71° SSW
Cosmos 1975 Rocket 3.1 23:38:12 10° N 23:42:25 77° N 23:42:25 77° N
Meteor 1-24 4.5 23:37:18 10° NNW 23:42:54 88° E 23:43:32 72° SSE
Cosmos 2333 4.5 23:37:57 10° NW 23:43:33 51° WSW 23:43:44 51° WSW
Cosmos 2034 Rocket 4.3 23:43:53 48° SE 23:45:10 56° E 23:51:20 10° NNE
Okean 2 Rocket 4.2 23:45:22 35° E 23:45:22 35° E 23:49:16 10° NNE
Cosmos 1503 Rocket 3.9 23:45:55 74° SSE 23:46:15 78° ESE 23:51:38 10° NNE
Cosmos 2322 Rocket 4.2 23:44:55 10° WNW 23:47:53 15° W 23:48:01 15° W
Cosmos 1072 Rocket 4.3 23:46:51 62° S 23:47:57 86° E 23:54:06 10° N
YAOGAN 11 4.3 23:48:26 68° WNW 23:48:26 68° WNW 23:52:44 10° NNW
Helios 1A 3.6 23:49:48 48° WNW 23:49:48 48° WNW 23:53:15 10° NNW
SL-16 R/B 4.0 23:46:15 15° ESE 23:50:32 32° ENE 23:55:56 10° N
ERBS 4.2 23:48:46 10° NW 23:51:02 29° N 23:51:02 29° N
Cosmos 1486 Rocket 4.3 23:52:11 51° W 23:53:00 57° WNW 23:58:09 10° NNE
CZ-2D R/B 4.1 23:49:44 10° NE 23:53:25 18° E 23:54:54 16° ESE
SL-16 R/B 4.1 23:48:46 10° NNW 23:53:35 27° NE 23:58:22 10° ESE
Cosmos 1544 4.3 23:54:38 39° NNW 23:54:38 39° NNW 23:57:17 10° N
Sich 1 Rocket 3.8 23:55:31 64° ENE 23:55:31 64° ENE 23:59:32 10° NNE
